Location: Grand Rapids
(42.9630°N, 85.6680°W)
Time: 07:18:26
(UTC-04:00)

Tiros 1 - Pass Details

Date: 17 April 2025
Orbit: 620 x 652 km, 48.4° (Epoch: 13 May)

Event Time Altitude Azimuth Distance (km) Brightness Sun altitude
Exits shadow 05:33:37 - 177° (S) 2,843 10.2 -14.9°
Reaches altitude 10° 05:37:47 10° 139° (SE) 2,047 9.9 -14.2°
Maximum altitude 05:38:34 10° 130° (SE) 2,022 10.0 -14.1°
Drops below altitude 10° 05:39:23 10° 120° (ESE) 2,050 10.1 -14.0°
Sets 05:43:55 0° 80° (E) 2,967 12.1 -13.3°
